Time,TemperatureF,DewpointF,PressureIn,WindDirection,WindDirectionDegrees,WindSpeedMPH,WindSpeedGustMPH,Humidity,HourlyPrecipIn,Conditions,Clouds,dailyrainin,SoftwareType,DateUTC
2013-12-17 00:00:00,36.4,31.1,30.11,N/A,-737280,0.0,0.0,81,0.00,,,0.00,Wunderground v.1.13,2013-12-17 05:00:00,
2013-12-17 00:10:00,36.4,31.1,30.11,N/A,-737280,0.0,0.0,81,0.00,,,0.00,Wunderground v.1.13,2013-12-17 05:10:00,
2013-12-17 00:20:00,36.4,31.1,30.11,N/A,-737280,0.0,0.0,81,0.00,,,0.00,Wunderground v.1.13,2013-12-17 05:20:00,
2013-12-17 00:30:00,36.4,31.1,30.11,N/A,-737280,0.0,0.0,81,0.00,,,0.00,Wunderground v.1.13,2013-12-17 05:30:00,
2013-12-17 00:40:00,36.4,31.1,30.11,N/A,-737280,0.0,0.0,81,0.00,,,0.00,Wunderground v.1.13,2013-12-17 05:40:00,
2013-12-17 00:50:00,34.5,30.5,30.12,N/A,-737280,0.0,0.0,85,0.00,,,0.00,Wunderground v.1.13,2013-12-17 05:50:00,
2013-12-17 01:00:00,34.5,30.5,30.12,N/A,-737280,0.0,0.0,85,0.00,,,0.00,Wunderground v.1.13,2013-12-17 06:00:00,
2013-12-17 01:10:00,34.5,30.5,30.12,N/A,-737280,0.0,0.0,85,0.00,,,0.00,Wunderground v.1.13,2013-12-17 06:10:00,
2013-12-17 01:20:00,33.1,29.9,30.12,SW,225,0.0,1.0,88,0.00,,,0.00,Wunderground v.1.13,2013-12-17 06:20:00,
2013-12-17 01:30:00,33.1,29.9,30.12,SW,225,0.0,1.0,88,0.00,,,0.00,Wunderground v.1.13,2013-12-17 06:30:00,
2013-12-17 01:40:00,33.1,29.9,30.12,SW,225,0.0,1.0,88,0.00,,,0.00,Wunderground v.1.13,2013-12-17 06:40:00,
2013-12-17 01:50:00,33.4,30.2,30.13,N/A,-737280,0.0,0.0,88,0.00,,,0.00,Wunderground v.1.13,2013-12-17 06:50:00,
2013-12-17 02:00:00,33.4,30.2,30.13,N/A,-737280,0.0,0.0,88,0.00,,,0.00,Wunderground v.1.13,2013-12-17 07:00:00,
2013-12-17 02:10:00,33.4,30.2,30.13,N/A,-737280,0.0,0.0,88,0.00,,,0.00,Wunderground v.1.13,2013-12-17 07:10:00,
2013-12-17 02:20:00,33.0,30.1,30.13,N/A,-737280,0.0,0.0,89,0.00,,,0.00,Wunderground v.1.13,2013-12-17 07:20:00,
2013-12-17 02:30:00,33.0,30.1,30.13,N/A,-737280,0.0,0.0,89,0.00,,,0.00,Wunderground v.1.13,2013-12-17 07:30:00,
2013-12-17 02:40:00,33.0,30.1,30.13,N/A,-737280,0.0,0.0,89,0.00,,,0.00,Wunderground v.1.13,2013-12-17 07:40:00,
2013-12-17 02:50:00,35.1,30.5,30.12,SSW,203,0.0,1.0,83,0.00,,,0.00,Wunderground v.1.13,2013-12-17 07:50:00,
2013-12-17 03:00:00,35.1,30.5,30.12,SSW,203,0.0,1.0,83,0.00,,,0.00,Wunderground v.1.13,2013-12-17 08:00:00,
2013-12-17 03:10:00,35.1,30.5,30.12,SSW,203,0.0,1.0,83,0.00,,,0.00,Wunderground v.1.13,2013-12-17 08:10:00,
2013-12-17 03:20:00,37.9,30.7,30.11,N/A,-737280,0.0,0.0,75,0.00,,,0.00,Wunderground v.1.13,2013-12-17 08:20:00,
2013-12-17 03:30:00,37.9,30.7,30.11,N/A,-737280,0.0,0.0,75,0.00,,,0.00,Wunderground v.1.13,2013-12-17 08:30:00,
2013-12-17 03:40:00,37.9,30.7,30.11,N/A,-737280,0.0,0.0,75,0.00,,,0.00,Wunderground v.1.13,2013-12-17 08:40:00,
2013-12-17 03:50:00,39.5,30.2,30.11,SSW,203,0.0,1.0,69,0.00,,,0.00,Wunderground v.1.13,2013-12-17 08:50:00,
2013-12-17 04:00:00,39.5,30.2,30.11,SSW,203,0.0,1.0,69,0.00,,,0.00,Wunderground v.1.13,2013-12-17 09:00:00,
2013-12-17 04:10:00,39.5,30.2,30.11,SSW,203,0.0,1.0,69,0.00,,,0.00,Wunderground v.1.13,2013-12-17 09:10:00,
2013-12-17 04:20:00,40.0,29.9,30.11,SSW,203,0.0,1.0,67,0.00,,,0.00,Wunderground v.1.13,2013-12-17 09:20:00,
2013-12-17 04:30:00,40.0,29.9,30.11,SSW,203,0.0,1.0,67,0.00,,,0.00,Wunderground v.1.13,2013-12-17 09:30:00,
2013-12-17 04:40:00,40.0,29.9,30.11,SSW,203,0.0,1.0,67,0.00,,,0.00,Wunderground v.1.13,2013-12-17 09:40:00,
2013-12-17 04:50:00,41.0,30.1,30.10,SSW,203,0.0,1.0,65,0.00,,,0.00,Wunderground v.1.13,2013-12-17 09:50:00,
2013-12-17 05:00:00,41.0,30.1,30.10,SSW,203,0.0,1.0,65,0.00,,,0.00,Wunderground v.1.13,2013-12-17 10:00:00,
2013-12-17 05:10:00,41.0,30.1,30.10,SSW,203,0.0,1.0,65,0.00,,,0.00,Wunderground v.1.13,2013-12-17 10:10:00,
2013-12-17 05:20:00,41.0,29.7,30.10,SE,135,0.0,1.0,64,0.00,,,0.00,Wunderground v.1.13,2013-12-17 10:20:00,
2013-12-17 05:30:00,41.0,29.7,30.10,SE,135,0.0,1.0,64,0.00,,,0.00,Wunderground v.1.13,2013-12-17 10:30:00,
2013-12-17 05:50:00,41.2,29.9,30.11,SSW,203,0.0,2.0,64,0.00,,,0.00,Wunderground v.1.13,2013-12-17 10:50:00,
2013-12-17 06:00:00,41.2,29.9,30.11,SSW,203,0.0,2.0,64,0.00,,,0.00,Wunderground v.1.13,2013-12-17 11:00:00,
2013-12-17 06:30:00,41.4,29.7,30.12,NNE,23,0.0,1.0,63,0.00,,,0.00,Wunderground v.1.13,2013-12-17 11:30:00,
2013-12-17 06:40:00,41.4,29.7,30.12,NNE,23,0.0,1.0,63,0.00,,,0.00,Wunderground v.1.13,2013-12-17 11:40:00,
2013-12-17 06:50:00,41.4,30.1,30.12,N/A,-737280,0.0,0.0,64,0.00,,,0.00,Wunderground v.1.13,2013-12-17 11:50:00,
2013-12-17 07:00:00,41.4,30.1,30.12,N/A,-737280,0.0,0.0,64,0.00,,,0.00,Wunderground v.1.13,2013-12-17 12:00:00,
2013-12-17 07:10:00,41.4,30.1,30.12,N/A,-737280,0.0,0.0,64,0.00,,,0.00,Wunderground v.1.13,2013-12-17 12:10:00,
2013-12-17 07:20:00,40.7,30.2,30.11,N/A,-737280,0.0,0.0,66,0.00,,,0.00,Wunderground v.1.13,2013-12-17 12:20:00,
2013-12-17 07:30:00,40.7,30.2,30.11,N/A,-737280,0.0,0.0,66,0.00,,,0.00,Wunderground v.1.13,2013-12-17 12:30:00,
2013-12-17 07:50:00,41.4,31.3,30.11,NNE,23,0.0,1.0,67,0.00,,,0.00,Wunderground v.1.13,2013-12-17 12:50:00,
2013-12-17 08:00:00,41.4,31.3,30.11,NNE,23,0.0,1.0,67,0.00,,,0.00,Wunderground v.1.13,2013-12-17 13:00:00,
2013-12-17 08:10:00,41.4,31.3,30.11,NNE,23,0.0,1.0,67,0.00,,,0.00,Wunderground v.1.13,2013-12-17 13:10:00,
2013-12-17 08:20:00,44.1,31.9,30.10,South,180,0.0,3.0,62,0.00,,,0.00,Wunderground v.1.13,2013-12-17 13:20:00,
2013-12-17 08:30:00,44.1,31.9,30.10,South,180,0.0,3.0,62,0.00,,,0.00,Wunderground v.1.13,2013-12-17 13:30:00,
2013-12-17 08:40:00,44.1,31.9,30.10,South,180,0.0,3.0,62,0.00,,,0.00,Wunderground v.1.13,2013-12-17 13:40:00,
2013-12-17 08:50:00,47.0,32.1,30.10,West,270,0.0,4.0,56,0.00,,,0.00,Wunderground v.1.13,2013-12-17 13:50:00,
2013-12-17 09:00:00,47.0,32.1,30.10,West,270,0.0,4.0,56,0.00,,,0.00,Wunderground v.1.13,2013-12-17 14:00:00,
2013-12-17 09:10:00,47.0,32.1,30.10,West,270,0.0,4.0,56,0.00,,,0.00,Wunderground v.1.13,2013-12-17 14:10:00,
2013-12-17 09:20:00,49.5,34.0,30.09,West,270,1.0,5.0,55,0.00,,,0.00,Wunderground v.1.13,2013-12-17 14:20:00,
2013-12-17 09:30:00,49.5,34.0,30.09,West,270,1.0,5.0,55,0.00,,,0.00,Wunderground v.1.13,2013-12-17 14:30:00,
2013-12-17 09:40:00,49.5,34.0,30.09,West,270,1.0,5.0,55,0.00,,,0.00,Wunderground v.1.13,2013-12-17 14:40:00,
2013-12-17 09:50:00,51.2,32.7,30.10,West,270,2.0,14.0,49,0.00,,,0.00,Wunderground v.1.13,2013-12-17 14:50:00,
2013-12-17 10:00:00,51.2,32.7,30.10,West,270,2.0,14.0,49,0.00,,,0.00,Wunderground v.1.13,2013-12-17 15:00:00,
2013-12-17 10:10:00,51.2,32.7,30.10,West,270,2.0,14.0,49,0.00,,,0.00,Wunderground v.1.13,2013-12-17 15:10:00,
2013-12-17 10:20:00,52.1,35.0,30.09,West,270,2.0,12.0,52,0.00,,,0.00,Wunderground v.1.13,2013-12-17 15:20:00,
2013-12-17 10:30:00,52.1,35.0,30.09,West,270,2.0,12.0,52,0.00,,,0.00,Wunderground v.1.13,2013-12-17 15:30:00,
2013-12-17 10:40:00,52.1,35.0,30.09,West,270,2.0,12.0,52,0.00,,,0.00,Wunderground v.1.13,2013-12-17 15:40:00,
2013-12-17 10:50:00,52.4,33.3,30.09,WNW,293,2.0,9.0,48,0.00,,,0.00,Wunderground v.1.13,2013-12-17 15:50:00,
2013-12-17 11:00:00,52.4,33.3,30.09,WNW,293,2.0,9.0,48,0.00,,,0.00,Wunderground v.1.13,2013-12-17 16:00:00,
2013-12-17 11:10:00,52.4,33.3,30.09,WNW,293,2.0,9.0,48,0.00,,,0.00,Wunderground v.1.13,2013-12-17 16:10:00,
2013-12-17 11:20:00,52.4,33.3,30.06,WSW,248,2.0,13.0,48,0.00,,,0.00,Wunderground v.1.13,2013-12-17 16:20:00,
2013-12-17 11:30:00,52.4,33.3,30.06,WSW,248,2.0,13.0,48,0.00,,,0.00,Wunderground v.1.13,2013-12-17 16:30:00,
2013-12-17 11:40:00,52.4,33.3,30.06,WSW,248,2.0,13.0,48,0.00,,,0.00,Wunderground v.1.13,2013-12-17 16:40:00,
2013-12-17 11:50:00,53.5,33.7,30.03,WNW,293,1.0,9.0,47,0.00,,,0.00,Wunderground v.1.13,2013-12-17 16:50:00,
2013-12-17 12:00:00,53.5,33.7,30.03,WNW,293,1.0,9.0,47,0.00,,,0.00,Wunderground v.1.13,2013-12-17 17:00:00,
2013-12-17 12:10:00,53.5,33.7,30.03,WNW,293,1.0,9.0,47,0.00,,,0.00,Wunderground v.1.13,2013-12-17 17:10:00,
2013-12-17 12:20:00,53.2,34.0,30.03,WNW,293,2.0,9.0,48,0.00,,,0.00,Wunderground v.1.13,2013-12-17 17:20:00,
2013-12-17 12:30:00,53.2,34.0,30.03,WNW,293,2.0,9.0,48,0.00,,,0.00,Wunderground v.1.13,2013-12-17 17:30:00,
2013-12-17 12:40:00,53.2,34.0,30.03,WNW,293,2.0,9.0,48,0.00,,,0.00,Wunderground v.1.13,2013-12-17 17:40:00,
2013-12-17 12:50:00,54.1,34.8,30.01,West,270,2.0,11.0,48,0.00,,,0.00,Wunderground v.1.13,2013-12-17 17:50:00,
2013-12-17 13:00:00,54.1,34.8,30.01,West,270,2.0,11.0,48,0.00,,,0.00,Wunderground v.1.13,2013-12-17 18:00:00,
2013-12-17 13:10:00,54.1,34.8,30.01,West,270,2.0,11.0,48,0.00,,,0.00,Wunderground v.1.13,2013-12-17 18:10:00,
2013-12-17 13:20:00,55.5,35.0,29.99,West,270,1.0,6.0,46,0.00,,,0.00,Wunderground v.1.13,2013-12-17 18:20:00,
2013-12-17 13:30:00,55.5,35.0,29.99,West,270,1.0,6.0,46,0.00,,,0.00,Wunderground v.1.13,2013-12-17 18:30:00,
2013-12-17 13:40:00,55.5,35.0,29.99,West,270,1.0,6.0,46,0.00,,,0.00,Wunderground v.1.13,2013-12-17 18:40:00,
2013-12-17 13:50:00,55.6,34.6,29.98,WSW,248,2.0,7.0,45,0.00,,,0.00,Wunderground v.1.13,2013-12-17 18:50:00,
2013-12-17 14:00:00,55.6,34.6,29.98,WSW,248,2.0,7.0,45,0.00,,,0.00,Wunderground v.1.13,2013-12-17 19:00:00,
2013-12-17 14:10:00,55.6,34.6,29.98,WSW,248,2.0,7.0,45,0.00,,,0.00,Wunderground v.1.13,2013-12-17 19:10:00,
2013-12-17 14:20:00,55.2,35.3,29.96,WNW,293,2.0,14.0,47,0.00,,,0.00,Wunderground v.1.13,2013-12-17 19:20:00,
2013-12-17 14:30:00,55.2,35.3,29.96,WNW,293,2.0,14.0,47,0.00,,,0.00,Wunderground v.1.13,2013-12-17 19:30:00,
2013-12-17 14:40:00,55.2,35.3,29.96,WNW,293,2.0,14.0,47,0.00,,,0.00,Wunderground v.1.13,2013-12-17 19:40:00,
2013-12-17 14:50:00,55.9,34.3,29.95,WNW,293,1.0,7.0,44,0.00,,,0.00,Wunderground v.1.13,2013-12-17 19:50:00,
2013-12-17 15:00:00,55.9,34.3,29.95,WNW,293,1.0,7.0,44,0.00,,,0.00,Wunderground v.1.13,2013-12-17 20:00:00,
2013-12-17 15:10:00,55.9,34.3,29.95,WNW,293,1.0,7.0,44,0.00,,,0.00,Wunderground v.1.13,2013-12-17 20:10:00,
2013-12-17 15:20:00,55.2,35.3,29.95,WNW,293,1.0,9.0,47,0.00,,,0.00,Wunderground v.1.13,2013-12-17 20:20:00,
2013-12-17 15:30:00,55.2,35.3,29.95,WNW,293,1.0,9.0,47,0.00,,,0.00,Wunderground v.1.13,2013-12-17 20:30:00,
2013-12-17 15:40:00,55.2,35.3,29.95,WNW,293,1.0,9.0,47,0.00,,,0.00,Wunderground v.1.13,2013-12-17 20:40:00,
2013-12-17 15:50:00,54.4,34.0,29.95,West,270,2.0,7.0,46,0.00,,,0.00,Wunderground v.1.13,2013-12-17 20:50:00,
2013-12-17 16:00:00,54.4,34.0,29.95,West,270,2.0,7.0,46,0.00,,,0.00,Wunderground v.1.13,2013-12-17 21:00:00,
2013-12-17 16:10:00,54.4,34.0,29.95,West,270,2.0,7.0,46,0.00,,,0.00,Wunderground v.1.13,2013-12-17 21:10:00,
2013-12-17 16:20:00,53.5,35.3,29.97,West,270,1.0,11.0,50,0.00,,,0.00,Wunderground v.1.13,2013-12-17 21:20:00,
2013-12-17 16:30:00,53.5,35.3,29.97,West,270,1.0,11.0,50,0.00,,,0.00,Wunderground v.1.13,2013-12-17 21:30:00,
2013-12-17 16:40:00,53.5,35.3,29.97,West,270,1.0,11.0,50,0.00,,,0.00,Wunderground v.1.13,2013-12-17 21:40:00,
2013-12-17 16:50:00,53.1,35.4,29.98,West,270,1.0,7.0,51,0.00,,,0.00,Wunderground v.1.13,2013-12-17 21:50:00,
2013-12-17 17:00:00,53.1,35.4,29.98,West,270,1.0,7.0,51,0.00,,,0.00,Wunderground v.1.13,2013-12-17 22:00:00,
2013-12-17 17:10:00,53.1,35.4,29.98,West,270,1.0,7.0,51,0.00,,,0.00,Wunderground v.1.13,2013-12-17 22:10:00,
2013-12-17 17:20:00,52.8,35.6,30.00,WSW,248,1.0,7.0,52,0.00,,,0.00,Wunderground v.1.13,2013-12-17 22:20:00,
2013-12-17 17:30:00,52.8,35.6,30.00,WSW,248,1.0,7.0,52,0.00,,,0.00,Wunderground v.1.13,2013-12-17 22:30:00,
2013-12-17 17:40:00,52.8,35.6,30.00,WSW,248,1.0,7.0,52,0.00,,,0.00,Wunderground v.1.13,2013-12-17 22:40:00,
2013-12-17 17:50:00,52.8,34.7,30.02,West,270,1.0,10.0,50,0.00,,,0.00,Wunderground v.1.13,2013-12-17 22:50:00,
2013-12-17 18:00:00,52.8,34.7,30.02,West,270,1.0,10.0,50,0.00,,,0.00,Wunderground v.1.13,2013-12-17 23:00:00,
2013-12-17 18:10:00,52.8,34.7,30.02,West,270,1.0,10.0,50,0.00,,,0.00,Wunderground v.1.13,2013-12-17 23:10:00,
2013-12-17 18:20:00,52.4,34.3,30.04,NW,315,1.0,14.0,50,0.00,,,0.00,Wunderground v.1.13,2013-12-17 23:20:00,
2013-12-17 18:30:00,52.4,34.3,30.04,NW,315,1.0,14.0,50,0.00,,,0.00,Wunderground v.1.13,2013-12-17 23:30:00,
2013-12-17 18:40:00,52.4,34.3,30.04,NW,315,1.0,14.0,50,0.00,,,0.00,Wunderground v.1.13,2013-12-17 23:40:00,
2013-12-17 18:50:00,51.0,32.0,30.06,WNW,293,2.0,16.0,48,0.00,,,0.00,Wunderground v.1.13,2013-12-17 23:50:00,
2013-12-17 19:00:00,51.0,32.0,30.06,WNW,293,2.0,16.0,48,0.00,,,0.00,Wunderground v.1.13,2013-12-18 00:00:00,
2013-12-17 19:10:00,51.0,32.0,30.06,WNW,293,2.0,16.0,48,0.00,,,0.00,Wunderground v.1.13,2013-12-18 00:10:00,
2013-12-17 19:20:00,48.4,30.6,30.08,WNW,293,1.0,12.0,50,0.00,,,0.00,Wunderground v.1.13,2013-12-18 00:20:00,
2013-12-17 19:30:00,48.4,30.6,30.08,WNW,293,1.0,12.0,50,0.00,,,0.00,Wunderground v.1.13,2013-12-18 00:30:00,
2013-12-17 19:40:00,48.4,30.6,30.08,WNW,293,1.0,12.0,50,0.00,,,0.00,Wunderground v.1.13,2013-12-18 00:40:00,
2013-12-17 19:50:00,46.3,27.2,30.11,WNW,293,1.0,6.0,47,0.00,,,0.00,Wunderground v.1.13,2013-12-18 00:50:00,
2013-12-17 20:00:00,46.3,27.2,30.11,WNW,293,1.0,6.0,47,0.00,,,0.00,Wunderground v.1.13,2013-12-18 01:00:00,
2013-12-17 20:10:00,46.3,27.2,30.11,WNW,293,1.0,6.0,47,0.00,,,0.00,Wunderground v.1.13,2013-12-18 01:10:00,
2013-12-17 20:20:00,44.7,26.7,30.13,WNW,293,0.0,5.0,49,0.00,,,0.00,Wunderground v.1.13,2013-12-18 01:20:00,
2013-12-17 20:30:00,44.7,26.7,30.13,WNW,293,0.0,5.0,49,0.00,,,0.00,Wunderground v.1.13,2013-12-18 01:30:00,
2013-12-17 20:40:00,44.7,26.7,30.13,WNW,293,0.0,5.0,49,0.00,,,0.00,Wunderground v.1.13,2013-12-18 01:40:00,
2013-12-17 20:50:00,44.1,24.1,30.15,NW,315,1.0,9.0,45,0.00,,,0.00,Wunderground v.1.13,2013-12-18 01:50:00,
2013-12-17 21:00:00,44.1,24.1,30.15,NW,315,1.0,9.0,45,0.00,,,0.00,Wunderground v.1.13,2013-12-18 02:00:00,
2013-12-17 21:10:00,44.1,24.1,30.15,NW,315,1.0,9.0,45,0.00,,,0.00,Wunderground v.1.13,2013-12-18 02:10:00,
2013-12-17 21:20:00,43.0,22.5,30.16,WNW,293,1.0,7.0,44,0.00,,,0.00,Wunderground v.1.13,2013-12-18 02:20:00,
2013-12-17 21:30:00,43.0,22.5,30.16,WNW,293,1.0,7.0,44,0.00,,,0.00,Wunderground v.1.13,2013-12-18 02:30:00,
2013-12-17 21:40:00,43.0,22.5,30.16,WNW,293,1.0,7.0,44,0.00,,,0.00,Wunderground v.1.13,2013-12-18 02:40:00,
2013-12-17 21:50:00,42.2,21.8,30.18,NW,315,1.0,5.0,44,0.00,,,0.00,Wunderground v.1.13,2013-12-18 02:50:00,
2013-12-17 22:00:00,42.2,21.8,30.18,NW,315,1.0,5.0,44,0.00,,,0.00,Wunderground v.1.13,2013-12-18 03:00:00,
2013-12-17 22:10:00,42.2,21.8,30.18,NW,315,1.0,5.0,44,0.00,,,0.00,Wunderground v.1.13,2013-12-18 03:10:00,
2013-12-17 22:20:00,41.0,22.3,30.19,WNW,293,0.0,5.0,47,0.00,,,0.00,Wunderground v.1.13,2013-12-18 03:20:00,
2013-12-17 22:30:00,41.0,22.3,30.19,WNW,293,0.0,5.0,47,0.00,,,0.00,Wunderground v.1.13,2013-12-18 03:30:00,
2013-12-17 22:40:00,41.0,22.3,30.19,WNW,293,0.0,5.0,47,0.00,,,0.00,Wunderground v.1.13,2013-12-18 03:40:00,
2013-12-17 22:50:00,39.8,23.1,30.19,NW,315,0.0,5.0,51,0.00,,,0.00,Wunderground v.1.13,2013-12-18 03:50:00,
2013-12-17 23:00:00,39.8,23.1,30.19,NW,315,0.0,5.0,51,0.00,,,0.00,Wunderground v.1.13,2013-12-18 04:00:00,
2013-12-17 23:10:00,39.8,23.1,30.19,NW,315,0.0,5.0,51,0.00,,,0.00,Wunderground v.1.13,2013-12-18 04:10:00,
2013-12-17 23:20:00,38.8,23.6,30.19,West,270,0.0,5.0,54,0.00,,,0.00,Wunderground v.1.13,2013-12-18 04:20:00,
2013-12-17 23:30:00,38.8,23.6,30.19,West,270,0.0,5.0,54,0.00,,,0.00,Wunderground v.1.13,2013-12-18 04:30:00,
2013-12-17 23:40:00,38.8,23.6,30.19,West,270,0.0,5.0,54,0.00,,,0.00,Wunderground v.1.13,2013-12-18 04:40:00,
2013-12-17 23:50:00,37.1,24.1,30.20,West,270,0.0,1.0,59,0.00,,,0.00,Wunderground v.1.13,2013-12-18 04:50:00,